Regional Weather Roundup
Issued by NWS Bismarck, ND

Home | Current Version | Previous Version | Text Only | Print | Product List | Glossary On
Versions: 1 2 3 4 5 6 7 8 9 10 11 12 13 14 15 16 17 18 19 20 21 22 23 24 25 26 27 28 29 30 31 32 33 34 35 36 37 38 39 40 41 42 43 44 45 46 47 48 49 50
000
ASUS43 KBIS 221310
RWRBIS

NWR BROADCAST TEXT
NATIONAL WEATHER SERVICE BISMARCK ND
700 AM CST WED FEB 22 2017

NOTE: "FAIR" INDICATES FEW OR NO CLOUDS BELOW 12,000 FEET WITH NO
SIGNIFICANT WEATHER AND/OR OBSTRUCTIONS TO VISIBILITY.


CITY           SKY/WX    TMP DP  RH WIND       PRES   REMARKS
WILLISTON      LGT SNOW  32  30  92 N14       29.81R FOG
MINOT          LGT SNOW  32  29  88 N16       29.76R FOG
MINOT AFB      FLURRIES  31  28  87 N15       29.76R
BISMARCK       LGT RAIN  35  33  92 N8        29.70S
DICKINSON      CLOUDY    31  30  96 N12       29.69R
GARRISON         N/A     31  30  96 N12G18    29.72R
HETTINGER ARPT MOCLDY    35  33  92 NW5       29.69R
JAMESTOWN      CLOUDY    33  32  96 N5        29.66R FOG
CARRINGTON     FOG       32  32 100 N9        29.72R VSB 1/2
HAZEN          HVY SNOW N/A N/A N/A N7        29.74S
MANDAN         RAIN      32  32 100 N14       29.69S
RUGBY            N/A     32  32 100 NE14      29.74R
STANLEY        FLURRIES  30  30 100 NE14      29.79R WCI  20
TIOGA          MIX PCPN  30  30 100 NE16      29.79S WCI  19
WATFORD CITY   LGT SNOW  30  30 100 N10       29.77S
$$

CITY           SKY/WX    TMP DP  RH WIND       PRES   REMARKS
GRAND FORKS    LGT RAIN  34  29  82 N13       29.69F
GRAND FORKS AF CLOUDY    32  32 100 N12       29.70R
DEVILS LAKE    CLOUDY    32  31  96 N13       29.73R FOG
FARGO          CLOUDY    33  33 100 N9        29.66S FOG
CAVALIER       LGT SNOW  32  32 100 NE13      29.76S
GRAFTON        LGT SNOW  32  32 100 N13       29.74F
GWINNER        FAIR      34  34 100 N7        29.66S
ROLLA          CLOUDY    32  32 100 N14       29.75S FOG
$$

CITY           SKY/WX    TMP DP  RH WIND       PRES   REMARKS
ABERDEEN       FAIR      36  32  85 NE8       29.63F
MOBRIDGE       FAIR      38  33  82 N12       29.61S
BUFFALO          N/A     37  34  89 W8        29.62F
RAPID CITY     FAIR      46  32  58 W17       29.70S
GLASGOW        CLOUDY    31  28  89 NW7       29.85R
SIDNEY         LGT SNOW  32  31  96 N14G23    29.79R FOG
WOLF POINT     FLURRIES  33  29  85 NE9       29.83R
GLENDIVE       LGT SNOW  32  30  93 N9        29.77R FOG
MILES CITY     LGT RAIN  35  33  92 NW7       29.75R
BAKER          MIX PCPN  32  32 100 NW7       29.71R VSB 1/4
$$

CITY           SKY/WX    TMP DP  RH WIND       PRES   REMARKS
BILLINGS       CLOUDY    38  25  59 NW10      29.82R
GREAT FALLS    CLOUDY    31  30  96 SW7       29.84S
REGINA         CLOUDY    28  27  93 NW5       29.86R
ESTEVAN        CLOUDY    30  25  80 N14       29.82R WCI  20
$$





USA.gov is the U.S. government's official web portal to all federal, state and local government web resources and services.